Location: ?????
(31.8092°N, 35.2590°E)
Time: 16:20:42
(UTC+00:00)

Cosmos 676 Rocket - Pass Details

Date: 20 June 2021
Orbit: 754 x 784 km, 74.0° (Epoch: 03 August)

Event Time Altitude Azimuth Distance (km) Brightness Sun altitude
Rises 17:46:03 0° 344° (NNW) 3,275 8.2 -11.3°
Reaches altitude 10° 17:48:27 10° 346° (NNW) 2,344 7.3 -11.7°
Maximum altitude 17:53:48 82° 74° (ENE) 794 4.0 -12.6°
Enters shadow 17:58:27 14° 161° (SSE) 2,078 5.7 -13.4°
